• In Uzbekistan
  • List of Countries
  • For 7 days
  • Water Temperature
  • Satellite Maps
  • Weather Map
  • Weather Widgets
  • user-avatar
    Login

    Hourly Weather Mokhotlong

    Today, 25 June, Monday

    Time Temperature Precipitation Wind Pressure Humidity
    00:00 +3°C° 0 mm 2 mps 585 mmHg 29%
    01:00 +3°C° 0 mm 2 mps 585 mmHg 30%
    02:00 +3°C° 0 mm 2 mps 585 mmHg 30%
    03:00 +3°C° 0 mm 2 mps 585 mmHg 29%
    04:00 +2°C° 0 mm 2 mps 584 mmHg 28%
    05:00 +2°C° 0 mm 2 mps 584 mmHg 27%
    06:00 +3°C° 0 mm 2 mps 585 mmHg 25%
    07:00 +4°C° 0 mm 2 mps 586 mmHg 23%
    08:00 +6°C° 0 mm 2 mps 587 mmHg 23%
    09:00 +9°C° 0 mm 1 mps 588 mmHg 19%
    10:00 +11°C° 0 mm 1 mps 589 mmHg 15%
    11:00 +14°C° 0 mm 1 mps 590 mmHg 11%
    12:00 +14°C° 0 mm 1 mps 589 mmHg 11%
    13:00 +14°C° 0 mm 1 mps 589 mmHg 11%
    14:00 +15°C° 0 mm 1 mps 589 mmHg 10%
    15:00 +13°C° 0 mm 1 mps 588 mmHg 14%
    16:00 +11°C° 0 mm 1 mps 588 mmHg 18%
    17:00 +9°C° 0 mm 1 mps 587 mmHg 22%
    18:00 +8°C° 0 mm 1 mps 587 mmHg 24%
    19:00 +7°C° 0 mm 1 mps 587 mmHg 26%
    20:00 +6°C° 0 mm 1 mps 586 mmHg 28%
    21:00 +5°C° 0 mm 1 mps 586 mmHg 29%
    22:00 +5°C° 0 mm 1 mps 586 mmHg 31%
    23:00 +4°C° 0 mm 1 mps 587 mmHg 32%

    Tomorrow, 26 June, Tuesday

    Time Temperature Precipitation Wind Pressure Humidity
    00:00 +4°C° 0 mm 1 mps 586 mmHg 33%
    01:00 +3°C° 0 mm 1 mps 586 mmHg 34%
    02:00 +3°C° 0 mm 1 mps 586 mmHg 34%
    03:00 +3°C° 0 mm 1 mps 586 mmHg 35%
    04:00 +2°C° 0 mm 1 mps 586 mmHg 35%
    05:00 +2°C° 0 mm 1 mps 585 mmHg 35%
    06:00 +3°C° 0 mm 1 mps 586 mmHg 34%
    07:00 +4°C° 0 mm 1 mps 587 mmHg 32%
    08:00 +5°C° 0 mm 1 mps 588 mmHg 30%
    09:00 +7°C° 0 mm 1 mps 588 mmHg 27%
    10:00 +9°C° 0 mm 2 mps 589 mmHg 23%
    11:00 +12°C° 0 mm 2 mps 590 mmHg 19%
    12:00 +12°C° 0 mm 2 mps 590 mmHg 20%
    13:00 +13°C° 0 mm 2 mps 589 mmHg 20%
    14:00 +12°C° 0 mm 3 mps 589 mmHg 21%
    15:00 +12°C° 0 mm 2 mps 588 mmHg 26%
    16:00 +9°C° 0 mm 2 mps 587 mmHg 30%
    17:00 +8°C° 0 mm 2 mps 586 mmHg 34%
    18:00 +7°C° 0 mm 2 mps 586 mmHg 37%
    19:00 +6°C° 0 mm 2 mps 586 mmHg 40%
    20:00 +5°C° 0 mm 2 mps 586 mmHg 43%
    21:00 +4°C° 0 mm 2 mps 586 mmHg 43%
    22:00 +4°C° 0 mm 2 mps 586 mmHg 44%
    23:00 +4°C° 0 mm 2 mps 585 mmHg 44%

    Day after tomorrow, 27 June, Wednesday

    Time Temperature Precipitation Wind Pressure Humidity
    00:00 +4°C° 0 mm 2 mps 585 mmHg 46%
    01:00 +3°C° 0 mm 2 mps 585 mmHg 48%
    02:00 +3°C° 0 mm 2 mps 585 mmHg 50%
    03:00 +3°C° 0 mm 2 mps 585 mmHg 52%
    04:00 +3°C° 0 mm 2 mps 584 mmHg 54%
    05:00 +2°C° 0 mm 2 mps 584 mmHg 56%
    06:00 +3°C° 0 mm 2 mps 585 mmHg 55%
    07:00 +4°C° 0 mm 2 mps 585 mmHg 54%
    08:00 +5°C° 0 mm 2 mps 586 mmHg 53%
    09:00 +7°C° 0 mm 2 mps 587 mmHg 47%
    10:00 +9°C° 0 mm 2 mps 588 mmHg 41%
    11:00 +12°C° 0 mm 2 mps 589 mmHg 36%
    12:00 +12°C° 0 mm 3 mps 588 mmHg 34%
    13:00 +13°C° 0 mm 3 mps 588 mmHg 33%
    14:00 +13°C° 0 mm 4 mps 588 mmHg 31%
    15:00 +12°C° 0 mm 3 mps 587 mmHg 34%
    16:00 +10°C° 0 mm 3 mps 586 mmHg 38%
    17:00 +9°C° 0 mm 2 mps 586 mmHg 41%
    18:00 +8°C° 0 mm 2 mps 585 mmHg 45%
    19:00 +7°C° 0 mm 2 mps 585 mmHg 48%
    20:00 +6°C° 0 mm 2 mps 585 mmHg 52%
    21:00 +5°C° 0 mm 2 mps 585 mmHg 54%
    22:00 +5°C° 0 mm 2 mps 585 mmHg 56%
    23:00 +5°C° 0 mm 2 mps 585 mmHg 58%

    28 June, Thursday

    Time Temperature Precipitation Wind Pressure Humidity
    00:00 +4°C° 0 mm 2 mps 585 mmHg 59%
    01:00 +4°C° 0 mm 2 mps 585 mmHg 61%
    02:00 +4°C° 0 mm 2 mps 585 mmHg 62%
    03:00 +3°C° 0 mm 2 mps 585 mmHg 62%
    04:00 +3°C° 0 mm 2 mps 584 mmHg 62%
    05:00 +3°C° 0 mm 2 mps 584 mmHg 62%
    06:00 +4°C° 0 mm 1 mps 585 mmHg 58%
    07:00 +5°C° 0 mm 1 mps 586 mmHg 55%
    08:00 +6°C° 0 mm 1 mps 587 mmHg 51%
    09:00 +8°C° 0 mm 1 mps 588 mmHg 45%
    10:00 +9°C° 0 mm 2 mps 589 mmHg 39%
    11:00 +10°C° 0 mm 2 mps 589 mmHg 34%
    12:00 +11°C° 0 mm 3 mps 589 mmHg 32%
    13:00 +11°C° 0 mm 3 mps 589 mmHg 30%
    14:00 +12°C° 0 mm 4 mps 588 mmHg 29%
    15:00 +11°C° 0 mm 3 mps 588 mmHg 34%
    16:00 +10°C° 0 mm 3 mps 587 mmHg 39%
    17:00 +8°C° 0 mm 2 mps 587 mmHg 44%
    18:00 +7°C° 0 mm 2 mps 586 mmHg 49%
    19:00 +6°C° 0 mm 2 mps 586 mmHg 55%
    20:00 +6°C° 0 mm 1 mps 586 mmHg 60%
    21:00 +5°C° 0 mm 1 mps 585 mmHg 61%
    22:00 +5°C° 0 mm 1 mps 585 mmHg 61%
    23:00 +5°C° 0 mm 1 mps 585 mmHg 62%

    29 June, Friday

    Time Temperature Precipitation Wind Pressure Humidity
    00:00 +3°C° 0 mm 2 mps 584 mmHg 58%
    01:00 +3°C° 0 mm 2 mps 584 mmHg 55%
    02:00 +3°C° 0 mm 2 mps 584 mmHg 52%
    03:00 +3°C° 0 mm 2 mps 583 mmHg 49%
    04:00 +3°C° 0 mm 2 mps 583 mmHg 47%
    05:00 +3°C° 0 mm 2 mps 583 mmHg 44%
    06:00 +4°C° 0 mm 2 mps 583 mmHg 41%
    07:00 +4°C° 0 mm 2 mps 584 mmHg 38%
    08:00 +5°C° 0 mm 2 mps 585 mmHg 35%
    09:00 +8°C° 0 mm 3 mps 586 mmHg 30%
    10:00 +10°C° 0 mm 3 mps 586 mmHg 26%
    11:00 +13°C° 0 mm 3 mps 587 mmHg 21%
    12:00 +13°C° 0 mm 3 mps 587 mmHg 20%
    13:00 +14°C° 0 mm 4 mps 587 mmHg 20%
    14:00 +15°C° 0 mm 4 mps 587 mmHg 19%
    15:00 +13°C° 0 mm 3 mps 586 mmHg 22%
    16:00 +12°C° 0 mm 2 mps 585 mmHg 25%
    17:00 +10°C° 0 mm 2 mps 585 mmHg 28%
    18:00 +9°C° 0 mm 2 mps 585 mmHg 28%
    19:00 +8°C° 0 mm 2 mps 585 mmHg 29%
    20:00 +7°C° 0 mm 2 mps 585 mmHg 29%
    21:00 +6°C° 0 mm 2 mps 585 mmHg 30%
    22:00 +6°C° 0 mm 2 mps 585 mmHg 31%
    23:00 +6°C° 0 mm 1 mps 585 mmHg 32%

    30 June, Saturday

    Time Temperature Precipitation Wind Pressure Humidity
    00:00 +4°C° 0 mm 2 mps 584 mmHg 33%
    01:00 +4°C° 0 mm 2 mps 584 mmHg 33%
    02:00 +4°C° 0 mm 2 mps 584 mmHg 33%
    03:00 +3°C° 0 mm 2 mps 584 mmHg 32%
    04:00 +3°C° 0 mm 2 mps 584 mmHg 31%
    05:00 +3°C° 0 mm 2 mps 584 mmHg 31%
    06:00 +3°C° 0 mm 2 mps 584 mmHg 31%
    07:00 +5°C° 0 mm 1 mps 585 mmHg 31%
    08:00 +6°C° 0 mm 1 mps 586 mmHg 31%
    09:00 +7°C° 0 mm 2 mps 587 mmHg 28%
    10:00 +9°C° 0 mm 2 mps 587 mmHg 26%
    11:00 +12°C° 0 mm 2 mps 588 mmHg 24%
    12:00 +13°C° 0 mm 2 mps 588 mmHg 22%
    13:00 +14°C° 0 mm 2 mps 588 mmHg 21%
    14:00 +13°C° 0 mm 3 mps 588 mmHg 20%
    15:00 +13°C° 0 mm 2 mps 587 mmHg 24%
    16:00 +10°C° 0 mm 2 mps 587 mmHg 28%
    17:00 +10°C° 0 mm 1 mps 586 mmHg 31%
    18:00 +9°C° 0 mm 1 mps 586 mmHg 32%
    19:00 +7°C° 0 mm 2 mps 586 mmHg 32%
    20:00 +5°C° 0 mm 2 mps 586 mmHg 32%
    21:00 +5°C° 0 mm 2 mps 586 mmHg 32%
    22:00 +5°C° 0 mm 2 mps 585 mmHg 32%
    23:00 +4°C° 0 mm 2 mps 585 mmHg 32%
    Show more